• En España
  • Lista de países
  • Para 7 días
  • Temperatura del agua
  • Mapa Satelital
  • El tiempo en el mapa
  • Informadores
  • user-avatar
    Iniciar sesión

    Tiempo cada hora Kavarna

    Hoy, 19 Septiembre, Miércoles

    Tiempo Temperatura Precipitaciones Viento Presión Humedad
    00:00 +18°C° 0 mm 3 mps 766 mmHg 67%
    01:00 +18°C° 0 mm 3 mps 766 mmHg 68%
    02:00 +18°C° 0 mm 3 mps 766 mmHg 69%
    03:00 +17°C° 0 mm 3 mps 766 mmHg 69%
    04:00 +17°C° 0 mm 3 mps 766 mmHg 70%
    05:00 +17°C° 0 mm 3 mps 766 mmHg 70%
    06:00 +18°C° 0 mm 3 mps 766 mmHg 66%
    07:00 +19°C° 0 mm 4 mps 766 mmHg 61%
    08:00 +20°C° 0 mm 4 mps 766 mmHg 57%
    09:00 +22°C° 0 mm 4 mps 766 mmHg 52%
    10:00 +23°C° 0 mm 4 mps 766 mmHg 48%
    11:00 +25°C° 0 mm 4 mps 766 mmHg 43%
    12:00 +25°C° 0 mm 5 mps 766 mmHg 42%
    13:00 +26°C° 0 mm 5 mps 766 mmHg 42%
    14:00 +26°C° 0 mm 5 mps 766 mmHg 41%
    15:00 +25°C° 0 mm 5 mps 766 mmHg 44%
    16:00 +25°C° 0 mm 5 mps 765 mmHg 48%
    17:00 +23°C° 0 mm 5 mps 765 mmHg 51%
    18:00 +22°C° 0 mm 5 mps 765 mmHg 58%
    19:00 +21°C° 0 mm 5 mps 765 mmHg 64%
    20:00 +20°C° 0 mm 4 mps 765 mmHg 71%
    21:00 +19°C° 0 mm 4 mps 765 mmHg 73%
    22:00 +19°C° 0 mm 4 mps 765 mmHg 76%
    23:00 +19°C° 0 mm 4 mps 765 mmHg 78%

    Mañana, 20 Septiembre, Jueves

    Tiempo Temperatura Precipitaciones Viento Presión Humedad
    00:00 +19°C° 0 mm 3 mps 765 mmHg 79%
    01:00 +19°C° 0 mm 3 mps 765 mmHg 80%
    02:00 +18°C° 0 mm 3 mps 765 mmHg 81%
    03:00 +18°C° 0 mm 3 mps 765 mmHg 81%
    04:00 +18°C° 0 mm 4 mps 765 mmHg 82%
    05:00 +18°C° 0 mm 4 mps 764 mmHg 82%
    06:00 +19°C° 0 mm 4 mps 765 mmHg 78%
    07:00 +20°C° 0 mm 5 mps 765 mmHg 73%
    08:00 +21°C° 0 mm 5 mps 765 mmHg 68%
    09:00 +23°C° 0 mm 5 mps 765 mmHg 64%
    10:00 +24°C° 0 mm 6 mps 765 mmHg 59%
    11:00 +26°C° 0 mm 6 mps 765 mmHg 54%
    12:00 +27°C° 0 mm 6 mps 764 mmHg 53%
    13:00 +27°C° 0 mm 6 mps 764 mmHg 51%
    14:00 +27°C° 0 mm 6 mps 764 mmHg 50%
    15:00 +27°C° 0 mm 5 mps 763 mmHg 53%
    16:00 +26°C° 0 mm 5 mps 763 mmHg 55%
    17:00 +25°C° 0 mm 5 mps 763 mmHg 58%
    18:00 +23°C° 0 mm 5 mps 763 mmHg 65%
    19:00 +22°C° 0 mm 4 mps 763 mmHg 72%
    20:00 +21°C° 0 mm 4 mps 763 mmHg 79%
    21:00 +20°C° 0 mm 4 mps 763 mmHg 81%
    22:00 +20°C° 0 mm 3 mps 763 mmHg 83%
    23:00 +20°C° 0 mm 3 mps 763 mmHg 85%

    Pasado mañana, 21 Septiembre, Viernes

    Tiempo Temperatura Precipitaciones Viento Presión Humedad
    00:00 +20°C° 0 mm 3 mps 763 mmHg 85%
    01:00 +19°C° 0 mm 3 mps 763 mmHg 85%
    02:00 +19°C° 0 mm 3 mps 763 mmHg 86%
    03:00 +19°C° 0 mm 3 mps 763 mmHg 86%
    04:00 +19°C° 0 mm 4 mps 763 mmHg 86%
    05:00 +18°C° 0 mm 4 mps 763 mmHg 86%
    06:00 +19°C° 0 mm 4 mps 763 mmHg 79%
    07:00 +20°C° 0 mm 5 mps 763 mmHg 73%
    08:00 +21°C° 0 mm 5 mps 763 mmHg 66%
    09:00 +23°C° 0 mm 5 mps 763 mmHg 60%
    10:00 +26°C° 0 mm 5 mps 764 mmHg 54%
    11:00 +27°C° 0 mm 5 mps 764 mmHg 48%
    12:00 +28°C° 0 mm 4 mps 763 mmHg 47%
    13:00 +28°C° 0 mm 4 mps 763 mmHg 46%
    14:00 +28°C° 0 mm 4 mps 763 mmHg 45%
    15:00 +28°C° 0 mm 4 mps 763 mmHg 48%
    16:00 +27°C° 0 mm 4 mps 763 mmHg 50%
    17:00 +26°C° 0 mm 3 mps 762 mmHg 53%
    18:00 +25°C° 0 mm 3 mps 763 mmHg 61%
    19:00 +22°C° 0 mm 3 mps 763 mmHg 69%
    20:00 +21°C° 0 mm 2 mps 763 mmHg 76%
    21:00 +20°C° 0 mm 2 mps 763 mmHg 79%
    22:00 +21°C° 0 mm 1 mps 763 mmHg 82%
    23:00 +21°C° 0 mm 1 mps 763 mmHg 85%

    22 Septiembre, Sábado

    Tiempo Temperatura Precipitaciones Viento Presión Humedad
    00:00 +20°C° 0 mm 1 mps 763 mmHg 84%
    01:00 +20°C° 0 mm 1 mps 762 mmHg 84%
    02:00 +20°C° 0 mm 1 mps 762 mmHg 84%
    03:00 +19°C° 0 mm 2 mps 762 mmHg 83%
    04:00 +19°C° 0 mm 2 mps 762 mmHg 82%
    05:00 +18°C° 0 mm 2 mps 762 mmHg 82%
    06:00 +20°C° 0 mm 2 mps 762 mmHg 75%
    07:00 +21°C° 0 mm 2 mps 762 mmHg 69%
    08:00 +23°C° 0 mm 2 mps 762 mmHg 63%
    09:00 +25°C° 0 mm 2 mps 762 mmHg 56%
    10:00 +26°C° 0 mm 2 mps 763 mmHg 49%
    11:00 +28°C° 0 mm 2 mps 763 mmHg 41%
    12:00 +28°C° 0 mm 2 mps 762 mmHg 41%
    13:00 +29°C° 0 mm 2 mps 762 mmHg 40%
    14:00 +29°C° 0 mm 2 mps 761 mmHg 39%
    15:00 +29°C° 0 mm 2 mps 761 mmHg 43%
    16:00 +28°C° 0 mm 2 mps 761 mmHg 47%
    17:00 +27°C° 0 mm 3 mps 761 mmHg 51%
    18:00 +26°C° 0 mm 2 mps 761 mmHg 57%
    19:00 +24°C° 0 mm 2 mps 761 mmHg 63%
    20:00 +23°C° 0 mm 2 mps 761 mmHg 69%
    21:00 +21°C° 0 mm 2 mps 761 mmHg 70%
    22:00 +21°C° 0 mm 2 mps 761 mmHg 71%
    23:00 +21°C° 0 mm 2 mps 761 mmHg 73%

    23 Septiembre, Domingo

    Tiempo Temperatura Precipitaciones Viento Presión Humedad
    00:00 +21°C° 0 mm 2 mps 761 mmHg 73%
    01:00 +20°C° 0 mm 3 mps 761 mmHg 73%
    02:00 +20°C° 0 mm 3 mps 761 mmHg 73%
    03:00 +20°C° 0 mm 3 mps 761 mmHg 71%
    04:00 +20°C° 0 mm 3 mps 761 mmHg 70%
    05:00 +20°C° 0 mm 3 mps 761 mmHg 68%
    06:00 +21°C° 0 mm 3 mps 761 mmHg 63%
    07:00 +22°C° 0 mm 3 mps 761 mmHg 58%
    08:00 +24°C° 0 mm 3 mps 761 mmHg 52%
    09:00 +25°C° 0 mm 4 mps 761 mmHg 47%
    10:00 +27°C° 0 mm 4 mps 761 mmHg 42%
    11:00 +28°C° 0 mm 4 mps 762 mmHg 37%
    12:00 +27°C° 0 mm 5 mps 762 mmHg 42%
    13:00 +24°C° 0 mm 6 mps 762 mmHg 47%
    14:00 +23°C° 0 mm 6 mps 762 mmHg 51%
    15:00 +23°C° 0 mm 7 mps 762 mmHg 52%
    16:00 +22°C° 0 mm 7 mps 762 mmHg 52%
    17:00 +22°C° 0 mm 8 mps 763 mmHg 52%
    18:00 +21°C° 0 mm 8 mps 763 mmHg 52%
    19:00 +20°C° 0 mm 7 mps 763 mmHg 53%
    20:00 +18°C° 0 mm 7 mps 764 mmHg 53%
    21:00 +18°C° 0 mm 7 mps 764 mmHg 54%
    22:00 +17°C° 0 mm 6 mps 764 mmHg 54%
    23:00 +17°C° 0 mm 6 mps 764 mmHg 55%

    24 Septiembre, Lunes

    Tiempo Temperatura Precipitaciones Viento Presión Humedad
    00:00 +16°C° 0 mm 6 mps 764 mmHg 57%
    01:00 +16°C° 0 mm 6 mps 764 mmHg 58%
    02:00 +15°C° 0 mm 5 mps 764 mmHg 60%
    03:00 +15°C° 0 mm 5 mps 764 mmHg 60%
    04:00 +15°C° 0 mm 4 mps 763 mmHg 61%
    05:00 +15°C° 0 mm 4 mps 763 mmHg 62%
    06:00 +17°C° 0 mm 4 mps 763 mmHg 60%
    07:00 +18°C° 0 mm 3 mps 763 mmHg 57%
    08:00 +19°C° 0 mm 3 mps 763 mmHg 55%
    09:00 +20°C° 0 mm 3 mps 763 mmHg 53%
    10:00 +21°C° 0 mm 3 mps 762 mmHg 51%
    11:00 +22°C° 0 mm 3 mps 762 mmHg 49%
    12:00 +23°C° 0 mm 4 mps 761 mmHg 49%
    13:00 +23°C° 0 mm 4 mps 761 mmHg 50%
    14:00 +23°C° 0 mm 4 mps 760 mmHg 50%
    15:00 +23°C° 0 mm 4 mps 760 mmHg 54%
    16:00 +22°C° 0 mm 5 mps 759 mmHg 58%
    17:00 +21°C° 0 mm 5 mps 759 mmHg 62%
    18:00 +21°C° 0 mm 5 mps 759 mmHg 66%
    19:00 +20°C° 0 mm 5 mps 759 mmHg 70%
    20:00 +19°C° 0 mm 6 mps 759 mmHg 74%
    21:00 +19°C° 0 mm 6 mps 758 mmHg 76%
    22:00 +19°C° 0 mm 6 mps 758 mmHg 77%
    23:00 +19°C° 0 mm 6 mps 758 mmHg 79%
    Mostrar más